User: anonymous   Login
Location: Unspecified
(0.0000°N, 0.0000°E)
Time: 15:16:26
(UTC+00:00)
Language:

AAUSAT 4 - Orbit

View from above orbital plane
View from above orbital plane
View from above satellite
View from above satellite

Ground track
Ground track

The orbit data is extracted from the following two-line orbital elements,

1 41460U 16025E   18345.20326727  .00002360  00000-0  12430-3 0  9993
2 41460  98.1134  57.9653 0158822 269.2410  89.0644 15.06537833144133
Epoch (UTC): 11 December 2018 04:52:42
Eccentricity: 0.0158822
inclination: 98.1134°
perigee height: 437 km
apogee height: 657 km
right ascension of ascending node: 57.9653°
argument of perigee: 269.2410°
revolutions per day: 15.06537833
mean anomaly at epoch: 89.0644°
orbit number at epoch: 14413

The dashed part of the orbit path shows where the satellite is in the earth's shadow,  

DLR